Indianapolis, IN

7:18 PM EDT on September 22, 2019 (GMT -0400)
Indianapolis International

Weather History for KIND - July, 2019

Change the Weather History Date:

Tuesday, July 16, 2019

  Actual Average Record
Temperature  
Mean Temperature 80 °F 76 °F  
Max Temperature 87 °F 85 °F 98 °F (1988)
Min Temperature 73 °F 66 °F 49 °F (1945)
Degree Days  
Heating Degree Days 0 0  
Month to date heating degree days 0 0  
Since 1 June heating degree days 9 16  
Since 1 July heating degree days 0 0  
Cooling Degree Days 15 11  
Month to date cooling degree days 232 173  
Year to date cooling degree days 546 483  
Since 1 June cooling degree days 435 399  
Growing Degree Days 30 (Base 50)    
Moisture  
Dew Point 72 °F    
Average Humidity 80    
Maximum Humidity 94    
Minimum Humidity 65    
Precipitation  
Precipitation 0.39 in 0.15 in 2.32 in (1872)
Month to date precipitation 1.23 2.54  
Year to date precipitation 30.38 24.19  
Snow  
Snow 0.00 in 0.00 in 0.00 in ()
Month to date snowfall 0.0 0.0  
Since 1 June snowfall 0.0 0.0  
Since 1 July snowfall 0.0 0.0  
Snow Depth 0.00 in    
Sea Level Pressure  
Sea Level Pressure 29.94 in    
Wind  
Wind Speed 12 mph (South)    
Max Wind Speed 24 mph    
Max Gust Speed 30 mph    
Visibility 9 miles    
Events Rain , Thunderstorm    
T = Trace of Precipitation, MM = Missing Value Source: NWS Daily Summary

Daily Weather History Graph

Daily Weather History Graph

Search for Another Location

Airport or City:

Astronomy

Jul. 16, 2019 Rise Set
Actual Time 6:30 AM EDT 9:11 PM EDT
Civil Twilight 5:58 AM EDT 9:43 PM EDT
Nautical Twilight 5:19 AM EDT 10:22 PM EDT
Astronomical Twilight 4:34 AM EDT 11:07 PM EDT
Moon 9:17 PM EDT (7/16) 6:08 AM EDT (7/16)
Length of Visible Light 15h 44m
Length of Day
14h 41m
Full, 100% of the Moon is Illuminated
Jul 16
Full
Jul 16
Full
Jul 24
Last Quarter
Jul 31
New
Aug 7
First Quarter

Hourly Weather History & Observations

Time (EDT) Temp. Heat Index Dew Point Humidity Pressure Visibility Wind Dir Wind Speed Gust Speed Precip Events Conditions
12:54 AM 77.0 °F - 70.0 °F 79% 30.02 in 10.0 mi SSE 8.1 mph - N/A   Mostly Cloudy
1:54 AM 75.9 °F - 72.0 °F 87% 30.02 in 10.0 mi SSE 10.4 mph - 0.00 in Rain Light Rain
2:54 AM 75.9 °F - 71.1 °F 85% 30.01 in 10.0 mi SSE 10.4 mph - 0.00 in   Overcast
3:54 AM 75.0 °F - 71.1 °F 87% 30.00 in 9.0 mi South 10.4 mph - 0.00 in Rain Light Rain
4:54 AM 75.0 °F - 70.0 °F 84% 29.98 in 10.0 mi SSE 8.1 mph - 0.00 in   Mostly Cloudy
5:54 AM 73.9 °F - 70.0 °F 87% 29.99 in 10.0 mi SSE 10.4 mph - 0.00 in   Overcast
6:54 AM 73.9 °F - 70.0 °F 87% 29.98 in 10.0 mi SSE 11.5 mph - N/A   Overcast
7:54 AM 75.0 °F - 69.1 °F 82% 29.99 in 10.0 mi South 11.5 mph 20.7 mph N/A   Mostly Cloudy
8:54 AM 77.0 °F - 70.0 °F 79% 29.98 in 10.0 mi South 11.5 mph - 0.00 in   Mostly Cloudy
9:21 AM 77.0 °F - 70.0 °F 79% 30.00 in 10.0 mi South 16.1 mph - N/A   Mostly Cloudy
9:54 AM 78.1 °F - 70.0 °F 76% 29.98 in 10.0 mi South 12.7 mph - N/A   Overcast
10:54 AM 78.1 °F - 71.1 °F 79% 29.98 in 10.0 mi SSW 16.1 mph 23.0 mph N/A   Overcast
11:54 AM 82.0 °F 86.7 °F 72.0 °F 71% 29.96 in 10.0 mi South 18.4 mph 23.0 mph N/A   Mostly Cloudy
12:33 PM 84.0 °F 89.6 °F 72.0 °F 67% 29.98 in 10.0 mi South 15.0 mph - N/A   Mostly Cloudy
12:54 PM 82.0 °F 85.9 °F 70.0 °F 67% 29.96 in 10.0 mi South 17.3 mph 27.6 mph 0.00 in Rain Light Rain
1:54 PM 86.0 °F 90.7 °F 70.0 °F 59% 29.94 in 10.0 mi SSW 12.7 mph 28.8 mph 0.00 in   Mostly Cloudy
2:54 PM 84.0 °F 89.0 °F 71.1 °F 65% 29.92 in 10.0 mi South 13.8 mph - N/A   Mostly Cloudy
3:54 PM 82.9 °F 88.8 °F 73.0 °F 72% 29.91 in 10.0 mi South 20.7 mph 28.8 mph 0.00 in   Overcast
4:30 PM 80.1 °F 83.6 °F 71.1 °F 74% 29.93 in 10.0 mi South 20.7 mph 29.9 mph N/A Thunderstorm Thunderstorm
4:54 PM 73.9 °F - 71.1 °F 91% 29.92 in 7.0 mi SW 15.0 mph - 0.04 in Rain , Thunderstorm Light Thunderstorms and Rain
5:06 PM 73.9 °F - 72.0 °F 93% 29.93 in 6.0 mi SW 10.4 mph - 0.01 in Rain Light Rain
5:54 PM 75.0 °F - 72.0 °F 90% 29.91 in 10.0 mi South 10.4 mph - 0.06 in Rain Light Rain
6:54 PM 75.9 °F - 73.0 °F 91% 29.90 in 10.0 mi SSE 10.4 mph - 0.00 in   Overcast
7:31 PM 75.9 °F - 73.0 °F 91% 29.92 in 10.0 mi South 12.7 mph - N/A Thunderstorm Thunderstorm
7:40 PM 77.0 °F - 73.0 °F 88% 29.91 in 10.0 mi South 10.4 mph - 0.00 in Rain , Thunderstorm Light Thunderstorms and Rain
7:54 PM 75.9 °F - 73.0 °F 91% 29.89 in 10.0 mi South 12.7 mph - 0.00 in Rain , Thunderstorm Light Thunderstorms and Rain
8:17 PM 73.9 °F - 72.0 °F 93% 29.91 in 3.0 mi SW 9.2 mph - 0.08 in Rain , Thunderstorm Thunderstorms and Rain
8:32 PM 75.0 °F - 73.0 °F 94% 29.90 in 8.0 mi South 8.1 mph - 0.11 in Rain , Thunderstorm Thunderstorms and Rain
8:41 PM 75.0 °F - 73.0 °F 94% 29.90 in 8.0 mi South 10.4 mph - 0.12 in Rain Light Rain
8:54 PM 75.0 °F - 73.0 °F 94% 29.88 in 10.0 mi South 10.4 mph - 0.13 in Rain Light Rain
9:54 PM 75.0 °F - 73.0 °F 94% 29.88 in 6.0 mi South 8.1 mph - 0.02 in Rain Light Rain
10:54 PM 75.0 °F - 73.9 °F 96% 29.88 in 10.0 mi South 10.4 mph - 0.02 in   Overcast
11:02 PM 75.0 °F - 73.9 °F 96% 29.90 in 5.0 mi South 8.1 mph - 0.00 in Rain , Thunderstorm Light Thunderstorms and Rain
11:37 PM 75.0 °F - 73.9 °F 96% 29.90 in 10.0 mi SSW 11.5 mph - 0.08 in Rain Light Rain
11:54 PM 75.0 °F - 73.0 °F 94% 29.87 in 10.0 mi SSW 10.4 mph - 0.08 in Rain Light Rain